When you browse on this site, cookies collect data to enhance your experience and personalize the content and advertising you see.
Visit our Privacy Policy to learn more. By continuing to use the site, you agree to this use of cookies and data.
  • en Suisse
  • Liste des pays
  • À 7 jours
  • Température de l'eau
  • Carte satellitaire
  • Carte météo
  • Widgets météo
  • user-avatar
    Se connecter

    Météo par heure à Tovste

    Ce jour, 19 Juillet, Vendredi

    Heure Température Précipitation Vent Pression Humidité
    00:00 +15°C° 0 mm 2 m/s 751 mmHg 85%
    01:00 +15°C° 0 mm 2 m/s 751 mmHg 88%
    02:00 +15°C° 0 mm 2 m/s 751 mmHg 90%
    03:00 +15°C° 0 mm 2 m/s 752 mmHg 90%
    04:00 +15°C° 0 mm 2 m/s 752 mmHg 91%
    05:00 +15°C° 0 mm 2 m/s 752 mmHg 91%
    06:00 +17°C° 0 mm 3 m/s 753 mmHg 84%
    07:00 +18°C° 0 mm 3 m/s 753 mmHg 77%
    08:00 +20°C° 0 mm 4 m/s 753 mmHg 69%
    09:00 +22°C° 0 mm 4 m/s 753 mmHg 65%
    10:00 +23°C° 0 mm 4 m/s 753 mmHg 60%
    11:00 +25°C° 0 mm 4 m/s 753 mmHg 56%
    12:00 +25°C° 0.2 mm 4 m/s 753 mmHg 55%
    13:00 +25°C° 0.2 mm 4 m/s 753 mmHg 54%
    14:00 +26°C° 0.2 mm 4 m/s 753 mmHg 53%
    15:00 +26°C° 0.1 mm 4 m/s 753 mmHg 53%
    16:00 +26°C° 0.1 mm 4 m/s 753 mmHg 52%
    17:00 +26°C° 0.1 mm 4 m/s 753 mmHg 52%
    18:00 +24°C° 0 mm 3 m/s 753 mmHg 59%
    19:00 +21°C° 0 mm 2 m/s 753 mmHg 66%
    20:00 +20°C° 0 mm 1 m/s 754 mmHg 72%
    21:00 +20°C° 0 mm 1 m/s 754 mmHg 74%
    22:00 +19°C° 0 mm 1 m/s 754 mmHg 75%
    23:00 +19°C° 0 mm 1 m/s 755 mmHg 77%

    Demain, 20 Juillet, Samedi

    Heure Température Précipitation Vent Pression Humidité
    00:00 +18°C° 0 mm 1 m/s 755 mmHg 78%
    01:00 +18°C° 0 mm 1 m/s 755 mmHg 80%
    02:00 +18°C° 0 mm 1 m/s 755 mmHg 81%
    03:00 +18°C° 0 mm 1 m/s 755 mmHg 83%
    04:00 +17°C° 0 mm 2 m/s 755 mmHg 85%
    05:00 +17°C° 0 mm 2 m/s 755 mmHg 86%
    06:00 +19°C° 0 mm 2 m/s 755 mmHg 79%
    07:00 +21°C° 0 mm 2 m/s 756 mmHg 72%
    08:00 +24°C° 0 mm 3 m/s 756 mmHg 65%
    09:00 +25°C° 0 mm 3 m/s 756 mmHg 60%
    10:00 +26°C° 0 mm 3 m/s 756 mmHg 55%
    11:00 +27°C° 0 mm 3 m/s 756 mmHg 50%
    12:00 +28°C° 0 mm 3 m/s 756 mmHg 49%
    13:00 +28°C° 0 mm 4 m/s 756 mmHg 48%
    14:00 +28°C° 0 mm 4 m/s 755 mmHg 48%
    15:00 +28°C° 0 mm 3 m/s 755 mmHg 49%
    16:00 +27°C° 0 mm 3 m/s 756 mmHg 51%
    17:00 +27°C° 0 mm 3 m/s 756 mmHg 53%
    18:00 +25°C° 0 mm 2 m/s 756 mmHg 58%
    19:00 +24°C° 0 mm 1 m/s 756 mmHg 64%
    20:00 +22°C° 0 mm 1 m/s 756 mmHg 69%
    21:00 +21°C° 0 mm 1 m/s 756 mmHg 69%
    22:00 +19°C° 0 mm 0 m/s 756 mmHg 70%
    23:00 +18°C° 0 mm 0 m/s 756 mmHg 71%

    Après-demain, 21 Juillet, Dimanche

    Heure Température Précipitation Vent Pression Humidité
    00:00 +18°C° 0.4 mm 0 m/s 756 mmHg 73%
    01:00 +20°C° 0.4 mm 1 m/s 756 mmHg 75%
    02:00 +20°C° 0.4 mm 1 m/s 756 mmHg 78%
    03:00 +20°C° 0.5 mm 1 m/s 756 mmHg 80%
    04:00 +18°C° 0.5 mm 0 m/s 756 mmHg 82%
    05:00 +18°C° 0.5 mm 0 m/s 756 mmHg 84%
    06:00 +21°C° 0.1 mm 1 m/s 756 mmHg 79%
    07:00 +23°C° 0.1 mm 1 m/s 756 mmHg 73%
    08:00 +24°C° 0.1 mm 1 m/s 756 mmHg 68%
    09:00 +25°C° 0 mm 2 m/s 756 mmHg 63%
    10:00 +27°C° 0 mm 2 m/s 756 mmHg 58%
    11:00 +28°C° 0 mm 2 m/s 756 mmHg 54%
    12:00 +29°C° 0 mm 2 m/s 755 mmHg 51%
    13:00 +29°C° 0 mm 3 m/s 755 mmHg 49%
    14:00 +30°C° 0 mm 3 m/s 755 mmHg 46%
    15:00 +30°C° 0.1 mm 3 m/s 755 mmHg 49%
    16:00 +29°C° 0.1 mm 3 m/s 755 mmHg 51%
    17:00 +29°C° 0.1 mm 3 m/s 755 mmHg 53%
    18:00 +27°C° 0.1 mm 2 m/s 755 mmHg 59%
    19:00 +25°C° 0.1 mm 1 m/s 755 mmHg 66%
    20:00 +21°C° 0.1 mm 0 m/s 754 mmHg 72%
    21:00 +23°C° 0 mm 1 m/s 755 mmHg 74%
    22:00 +22°C° 0 mm 1 m/s 755 mmHg 76%
    23:00 +22°C° 0 mm 1 m/s 755 mmHg 78%

    22 Juillet, Lundi

    Heure Température Précipitation Vent Pression Humidité
    00:00 +21°C° 0 mm 1 m/s 755 mmHg 80%
    01:00 +21°C° 0 mm 1 m/s 754 mmHg 82%
    02:00 +21°C° 0 mm 1 m/s 754 mmHg 84%
    03:00 +21°C° 0 mm 1 m/s 754 mmHg 84%
    04:00 +21°C° 0 mm 1 m/s 754 mmHg 84%
    05:00 +21°C° 0 mm 1 m/s 754 mmHg 85%
    06:00 +23°C° 0 mm 1 m/s 754 mmHg 79%
    07:00 +24°C° 0 mm 2 m/s 753 mmHg 73%
    08:00 +26°C° 0 mm 2 m/s 753 mmHg 67%
    09:00 +27°C° 0.1 mm 3 m/s 753 mmHg 64%
    10:00 +28°C° 0.1 mm 4 m/s 753 mmHg 61%
    11:00 +29°C° 0.1 mm 4 m/s 753 mmHg 58%
    12:00 +29°C° 0.3 mm 5 m/s 752 mmHg 55%
    13:00 +30°C° 0.3 mm 6 m/s 752 mmHg 52%
    14:00 +30°C° 0.3 mm 6 m/s 752 mmHg 50%
    15:00 +30°C° 0 mm 6 m/s 752 mmHg 51%
    16:00 +29°C° 0 mm 5 m/s 751 mmHg 53%
    17:00 +29°C° 0 mm 5 m/s 751 mmHg 54%
    18:00 +27°C° 0.2 mm 4 m/s 751 mmHg 63%
    19:00 +25°C° 0.2 mm 3 m/s 751 mmHg 72%
    20:00 +22°C° 0.2 mm 3 m/s 751 mmHg 81%
    21:00 +21°C° 0 mm 3 m/s 751 mmHg 85%
    22:00 +20°C° 0 mm 3 m/s 751 mmHg 89%
    23:00 +19°C° 0 mm 3 m/s 751 mmHg 93%

    23 Juillet, Mardi

    Heure Température Précipitation Vent Pression Humidité
    00:00 +19°C° 0 mm 3 m/s 751 mmHg 94%
    01:00 +18°C° 0 mm 3 m/s 751 mmHg 95%
    02:00 +18°C° 0 mm 3 m/s 751 mmHg 96%
    03:00 +18°C° 0 mm 3 m/s 751 mmHg 95%
    04:00 +17°C° 0 mm 3 m/s 751 mmHg 95%
    05:00 +17°C° 0 mm 3 m/s 751 mmHg 95%
    06:00 +18°C° 0 mm 3 m/s 750 mmHg 89%
    07:00 +19°C° 0 mm 4 m/s 750 mmHg 84%
    08:00 +21°C° 0 mm 4 m/s 750 mmHg 78%
    09:00 +21°C° 0 mm 4 m/s 750 mmHg 77%
    10:00 +21°C° 0 mm 4 m/s 750 mmHg 77%
    11:00 +21°C° 0 mm 4 m/s 750 mmHg 76%
    12:00 +21°C° 0 mm 4 m/s 750 mmHg 73%
    13:00 +22°C° 0 mm 4 m/s 750 mmHg 70%
    14:00 +22°C° 0 mm 4 m/s 749 mmHg 67%
    15:00 +22°C° 0 mm 4 m/s 749 mmHg 67%
    16:00 +22°C° 0 mm 4 m/s 749 mmHg 67%
    17:00 +23°C° 0 mm 4 m/s 749 mmHg 67%
    18:00 +21°C° 0 mm 4 m/s 749 mmHg 73%
    19:00 +20°C° 0 mm 3 m/s 749 mmHg 79%
    20:00 +19°C° 0 mm 3 m/s 749 mmHg 86%
    21:00 +18°C° 0 mm 3 m/s 749 mmHg 89%
    22:00 +17°C° 0 mm 3 m/s 748 mmHg 92%
    23:00 +16°C° 0 mm 2 m/s 748 mmHg 95%

    24 Juillet, Mercredi

    Heure Température Précipitation Vent Pression Humidité
    00:00 +16°C° 0 mm 2 m/s 748 mmHg 96%
    01:00 +15°C° 0 mm 2 m/s 748 mmHg 96%
    02:00 +15°C° 0 mm 1 m/s 747 mmHg 97%
    03:00 +15°C° 0 mm 1 m/s 747 mmHg 95%
    04:00 +16°C° 0 mm 1 m/s 747 mmHg 94%
    05:00 +16°C° 0 mm 1 m/s 747 mmHg 93%
    06:00 +18°C° 0 mm 1 m/s 747 mmHg 89%
    07:00 +19°C° 0 mm 1 m/s 747 mmHg 85%
    08:00 +19°C° 0 mm 2 m/s 748 mmHg 81%
    09:00 +20°C° 0 mm 2 m/s 748 mmHg 76%
    10:00 +21°C° 0 mm 2 m/s 748 mmHg 71%
    11:00 +23°C° 0 mm 2 m/s 748 mmHg 66%
    12:00 +22°C° 0.5 mm 3 m/s 748 mmHg 66%
    13:00 +23°C° 0.5 mm 4 m/s 747 mmHg 66%
    14:00 +23°C° 0.5 mm 5 m/s 747 mmHg 67%
    15:00 +23°C° 0.6 mm 5 m/s 747 mmHg 69%
    16:00 +23°C° 0.6 mm 5 m/s 747 mmHg 71%
    17:00 +22°C° 0.6 mm 5 m/s 747 mmHg 73%
    18:00 +21°C° 0.3 mm 5 m/s 748 mmHg 78%
    19:00 +19°C° 0.3 mm 5 m/s 748 mmHg 84%
    20:00 +17°C° 0.3 mm 5 m/s 748 mmHg 90%
    21:00 +16°C° 0 mm 5 m/s 748 mmHg 92%
    22:00 +16°C° 0 mm 5 m/s 748 mmHg 93%
    23:00 +16°C° 0 mm 5 m/s 748 mmHg 94%
    Voir plus